owner,sensor,date,latitude,longitude,sea_surface_height_above_sea_level,qcFlag 
COMPS,ioos:station:USF.COMPS:SHP:1,2016-02-01T00:00:00Z,30.0600,-84.2910,1.107,1111122 
COMPS,ioos:station:USF.COMPS:SHP:1,2016-02-01T00:06:00Z,30.0600,-84.2910,1.107,1111122 
COMPS,ioos:station:USF.COMPS:SHP:1,2016-02-01T00:12:00Z,30.0600,-84.2910,1.108,1111122 
COMPS,ioos:station:USF.COMPS:SHP:1,2016-02-01T00:18:00Z,30.0600,-84.2910,1.108,1111122 
COMPS,ioos:station:USF.COMPS:SHP:1,2016-02-01T00:24:00Z,30.0600,-84.2910,1.108,1111122 
COMPS,ioos:station:USF.COMPS:SHP:1,2016-02-01T00:30:00Z,30.0600,-84.2910,1.108,1111122 
COMPS,ioos:station:USF.COMPS:SHP:1,2016-02-01T00:36:00Z,30.0600,-84.2910,1.109,1111122 
COMPS,ioos:station:USF.COMPS:SHP:1,2016-02-01T00:42:00Z,30.0600,-84.2910,1.109,1111122 
COMPS,ioos:station:USF.COMPS:SHP:1,2016-02-01T00:48:00Z,30.0600,-84.2910,1.109,1111122 
COMPS,ioos:station:USF.COMPS:SHP:1,2016-02-01T00:54:00Z,30.0600,-84.2910,1.109,1111122 
COMPS,ioos:station:USF.COMPS:SHP:1,2016-02-01T01:00:00Z,30.0600,-84.2910,1.109,1111122 
COMPS,ioos:station:USF.COMPS:SHP:1,2016-02-01T01:06:00Z,30.0600,-84.2910,1.109,1111122 
COMPS,ioos:station:USF.COMPS:SHP:1,2016-02-01T01:12:00Z,30.0600,-84.2910,1.109,1111122 
COMPS,ioos:station:USF.COMPS:SHP:1,2016-02-01T01:18:00Z,30.0600,-84.2910,1.11,1111122 
COMPS,ioos:station:USF.COMPS:SHP:1,2016-02-01T01:24:00Z,30.0600,-84.2910,1.11,1111122 
COMPS,ioos:station:USF.COMPS:SHP:1,2016-02-01T01:30:00Z,30.0600,-84.2910,1.11,1111122 
COMPS,ioos:station:USF.COMPS:SHP:1,2016-02-01T01:36:00Z,30.0600,-84.2910,1.11,1111122 
COMPS,ioos:station:USF.COMPS:SHP:1,2016-02-01T01:42:00Z,30.0600,-84.2910,1.11,1111122 
COMPS,ioos:station:USF.COMPS:SHP:1,2016-02-01T01:48:00Z,30.0600,-84.2910,1.11,1111122 
COMPS,ioos:station:USF.COMPS:SHP:1,2016-02-01T01:54:00Z,30.0600,-84.2910,1.11,1111122 
COMPS,ioos:station:USF.COMPS:SHP:1,2016-02-01T02:00:00Z,30.0600,-84.2910,1.11,1111122 
COMPS,ioos:station:USF.COMPS:SHP:1,2016-02-01T02:06:00Z,30.0600,-84.2910,1.11,1111122 
COMPS,ioos:station:USF.COMPS:SHP:1,2016-02-01T02:12:00Z,30.0600,-84.2910,1.11,1111122 
COMPS,ioos:station:USF.COMPS:SHP:1,2016-02-01T02:18:00Z,30.0600,-84.2910,1.11,1111122 
COMPS,ioos:station:USF.COMPS:SHP:1,2016-02-01T02:24:00Z,30.0600,-84.2910,1.11,1111122 
COMPS,ioos:station:USF.COMPS:SHP:1,2016-02-01T02:30:00Z,30.0600,-84.2910,1.11,1111122 
COMPS,ioos:station:USF.COMPS:SHP:1,2016-02-01T02:36:00Z,30.0600,-84.2910,1.11,1111122 
COMPS,ioos:station:USF.COMPS:SHP:1,2016-02-01T02:42:00Z,30.0600,-84.2910,1.11,1111122 
COMPS,ioos:station:USF.COMPS:SHP:1,2016-02-01T02:48:00Z,30.0600,-84.2910,1.11,1111122 
COMPS,ioos:station:USF.COMPS:SHP:1,2016-02-01T02:54:00Z,30.0600,-84.2910,1.11,1111122 
COMPS,ioos:station:USF.COMPS:SHP:1,2016-02-01T03:00:00Z,30.0600,-84.2910,1.111,1111122 
COMPS,ioos:station:USF.COMPS:SHP:1,2016-02-01T03:06:00Z,30.0600,-84.2910,1.111,1111122 
COMPS,ioos:station:USF.COMPS:SHP:1,2016-02-01T03:12:00Z,30.0600,-84.2910,1.111,1111122 
COMPS,ioos:station:USF.COMPS:SHP:1,2016-02-01T03:18:00Z,30.0600,-84.2910,1.111,1111122 
COMPS,ioos:station:USF.COMPS:SHP:1,2016-02-01T03:24:00Z,30.0600,-84.2910,1.111,1111122 
COMPS,ioos:station:USF.COMPS:SHP:1,2016-02-01T03:30:00Z,30.0600,-84.2910,1.111,1111122 
COMPS,ioos:station:USF.COMPS:SHP:1,2016-02-01T03:36:00Z,30.0600,-84.2910,1.111,1111122 
COMPS,ioos:station:USF.COMPS:SHP:1,2016-02-01T03:42:00Z,30.0600,-84.2910,1.111,1111122 
COMPS,ioos:station:USF.COMPS:SHP:1,2016-02-01T03:48:00Z,30.0600,-84.2910,1.11,1111122 
COMPS,ioos:station:USF.COMPS:SHP:1,2016-02-01T03:54:00Z,30.0600,-84.2910,1.11,1111122 
COMPS,ioos:station:USF.COMPS:SHP:1,2016-02-01T04:00:00Z,30.0600,-84.2910,1.11,1111122 
COMPS,ioos:station:USF.COMPS:SHP:1,2016-02-01T04:06:00Z,30.0600,-84.2910,1.11,1111122 
COMPS,ioos:station:USF.COMPS:SHP:1,2016-02-01T04:12:00Z,30.0600,-84.2910,1.11,1111122 
COMPS,ioos:station:USF.COMPS:SHP:1,2016-02-01T04:18:00Z,30.0600,-84.2910,1.11,1111122 
COMPS,ioos:station:USF.COMPS:SHP:1,2016-02-01T04:24:00Z,30.0600,-84.2910,1.11,1111122 
COMPS,ioos:station:USF.COMPS:SHP:1,2016-02-01T04:30:00Z,30.0600,-84.2910,1.11,1111122 
COMPS,ioos:station:USF.COMPS:SHP:1,2016-02-01T04:36:00Z,30.0600,-84.2910,1.11,1111122 
COMPS,ioos:station:USF.COMPS:SHP:1,2016-02-01T04:42:00Z,30.0600,-84.2910,1.11,1111122 
COMPS,ioos:station:USF.COMPS:SHP:1,2016-02-01T04:48:00Z,30.0600,-84.2910,1.11,1111122 
COMPS,ioos:station:USF.COMPS:SHP:1,2016-02-01T04:54:00Z,30.0600,-84.2910,1.11,1111122 
COMPS,ioos:station:USF.COMPS:SHP:1,2016-02-01T05:00:00Z,30.0600,-84.2910,1.11,1111122 
COMPS,ioos:station:USF.COMPS:SHP:1,2016-02-01T05:06:00Z,30.0600,-84.2910,1.11,1111122 
COMPS,ioos:station:USF.COMPS:SHP:1,2016-02-01T05:12:00Z,30.0600,-84.2910,1.11,1111122 
COMPS,ioos:station:USF.COMPS:SHP:1,2016-02-01T05:18:00Z,30.0600,-84.2910,1.11,1111122 
COMPS,ioos:station:USF.COMPS:SHP:1,2016-02-01T05:24:00Z,30.0600,-84.2910,1.11,1111122 
COMPS,ioos:station:USF.COMPS:SHP:1,2016-02-01T05:30:00Z,30.0600,-84.2910,1.11,1111122 
COMPS,ioos:station:USF.COMPS:SHP:1,2016-02-01T05:36:00Z,30.0600,-84.2910,1.11,1111122 
COMPS,ioos:station:USF.COMPS:SHP:1,2016-02-01T05:42:00Z,30.0600,-84.2910,1.11,1111122 
COMPS,ioos:station:USF.COMPS:SHP:1,2016-02-01T05:48:00Z,30.0600,-84.2910,1.11,1111122 
COMPS,ioos:station:USF.COMPS:SHP:1,2016-02-01T05:54:00Z,30.0600,-84.2910,1.11,1111122 
COMPS,ioos:station:USF.COMPS:SHP:1,2016-02-01T06:00:00Z,30.0600,-84.2910,1.109,1111122 
COMPS,ioos:station:USF.COMPS:SHP:1,2016-02-01T06:06:00Z,30.0600,-84.2910,1.109,1111122 
COMPS,ioos:station:USF.COMPS:SHP:1,2016-02-01T06:12:00Z,30.0600,-84.2910,1.109,1111122 
COMPS,ioos:station:USF.COMPS:SHP:1,2016-02-01T06:18:00Z,30.0600,-84.2910,1.109,1111122 
COMPS,ioos:station:USF.COMPS:SHP:1,2016-02-01T06:24:00Z,30.0600,-84.2910,1.109,1111122 
COMPS,ioos:station:USF.COMPS:SHP:1,2016-02-01T06:30:00Z,30.0600,-84.2910,1.109,1111122 
COMPS,ioos:station:USF.COMPS:SHP:1,2016-02-01T06:36:00Z,30.0600,-84.2910,1.109,1111122 
COMPS,ioos:station:USF.COMPS:SHP:1,2016-02-01T06:42:00Z,30.0600,-84.2910,1.109,1111122 
COMPS,ioos:station:USF.COMPS:SHP:1,2016-02-01T06:48:00Z,30.0600,-84.2910,1.109,1111122 
COMPS,ioos:station:USF.COMPS:SHP:1,2016-02-01T06:54:00Z,30.0600,-84.2910,1.109,1111122 
COMPS,ioos:station:USF.COMPS:SHP:1,2016-02-01T07:00:00Z,30.0600,-84.2910,1.109,1111122 
COMPS,ioos:station:USF.COMPS:SHP:1,2016-02-01T07:06:00Z,30.0600,-84.2910,1.11,1111122 
COMPS,ioos:station:USF.COMPS:SHP:1,2016-02-01T07:12:00Z,30.0600,-84.2910,1.109,1111122 
COMPS,ioos:station:USF.COMPS:SHP:1,2016-02-01T07:18:00Z,30.0600,-84.2910,1.109,1111122 
COMPS,ioos:station:USF.COMPS:SHP:1,2016-02-01T07:24:00Z,30.0600,-84.2910,1.109,1111122 
COMPS,ioos:station:USF.COMPS:SHP:1,2016-02-01T07:30:00Z,30.0600,-84.2910,1.109,1111122 
COMPS,ioos:station:USF.COMPS:SHP:1,2016-02-01T07:36:00Z,30.0600,-84.2910,1.11,1111122 
COMPS,ioos:station:USF.COMPS:SHP:1,2016-02-01T07:42:00Z,30.0600,-84.2910,1.11,1111122 
COMPS,ioos:station:USF.COMPS:SHP:1,2016-02-01T07:48:00Z,30.0600,-84.2910,1.11,1111122 
COMPS,ioos:station:USF.COMPS:SHP:1,2016-02-01T07:54:00Z,30.0600,-84.2910,1.11,1111122 
COMPS,ioos:station:USF.COMPS:SHP:1,2016-02-01T08:00:00Z,30.0600,-84.2910,1.11,1111122 
COMPS,ioos:station:USF.COMPS:SHP:1,2016-02-01T08:06:00Z,30.0600,-84.2910,1.109,1111122 
COMPS,ioos:station:USF.COMPS:SHP:1,2016-02-01T08:12:00Z,30.0600,-84.2910,1.109,1111122 
COMPS,ioos:station:USF.COMPS:SHP:1,2016-02-01T08:18:00Z,30.0600,-84.2910,1.109,1111122 
COMPS,ioos:station:USF.COMPS:SHP:1,2016-02-01T08:24:00Z,30.0600,-84.2910,1.109,1111122 
COMPS,ioos:station:USF.COMPS:SHP:1,2016-02-01T08:30:00Z,30.0600,-84.2910,1.109,1111122 
COMPS,ioos:station:USF.COMPS:SHP:1,2016-02-01T08:36:00Z,30.0600,-84.2910,1.109,1111122 
COMPS,ioos:station:USF.COMPS:SHP:1,2016-02-01T08:42:00Z,30.0600,-84.2910,1.109,1111122 
COMPS,ioos:station:USF.COMPS:SHP:1,2016-02-01T08:48:00Z,30.0600,-84.2910,1.109,1111122 
COMPS,ioos:station:USF.COMPS:SHP:1,2016-02-01T08:54:00Z,30.0600,-84.2910,1.109,1111122 
COMPS,ioos:station:USF.COMPS:SHP:1,2016-02-01T09:00:00Z,30.0600,-84.2910,1.109,1111122 
COMPS,ioos:station:USF.COMPS:SHP:1,2016-02-01T09:06:00Z,30.0600,-84.2910,1.109,1111122 
COMPS,ioos:station:USF.COMPS:SHP:1,2016-02-01T09:12:00Z,30.0600,-84.2910,1.11,1111122 
COMPS,ioos:station:USF.COMPS:SHP:1,2016-02-01T09:18:00Z,30.0600,-84.2910,1.11,1111122 
COMPS,ioos:station:USF.COMPS:SHP:1,2016-02-01T09:24:00Z,30.0600,-84.2910,1.11,1111122 
COMPS,ioos:station:USF.COMPS:SHP:1,2016-02-01T09:30:00Z,30.0600,-84.2910,1.11,1111122 
COMPS,ioos:station:USF.COMPS:SHP:1,2016-02-01T09:36:00Z,30.0600,-84.2910,1.11,1111122 
COMPS,ioos:station:USF.COMPS:SHP:1,2016-02-01T09:42:00Z,30.0600,-84.2910,1.11,1111122 
COMPS,ioos:station:USF.COMPS:SHP:1,2016-02-01T09:48:00Z,30.0600,-84.2910,1.11,1111122 
COMPS,ioos:station:USF.COMPS:SHP:1,2016-02-01T09:54:00Z,30.0600,-84.2910,1.11,1111122 
COMPS,ioos:station:USF.COMPS:SHP:1,2016-02-01T10:00:00Z,30.0600,-84.2910,1.111,1111122 
COMPS,ioos:station:USF.COMPS:SHP:1,2016-02-01T10:06:00Z,30.0600,-84.2910,1.111,1111122 
COMPS,ioos:station:USF.COMPS:SHP:1,2016-02-01T10:12:00Z,30.0600,-84.2910,1.111,1111122 
COMPS,ioos:station:USF.COMPS:SHP:1,2016-02-01T10:18:00Z,30.0600,-84.2910,1.111,1111122 
COMPS,ioos:station:USF.COMPS:SHP:1,2016-02-01T10:24:00Z,30.0600,-84.2910,1.111,1111122 
COMPS,ioos:station:USF.COMPS:SHP:1,2016-02-01T10:30:00Z,30.0600,-84.2910,1.111,1111122 
COMPS,ioos:station:USF.COMPS:SHP:1,2016-02-01T10:36:00Z,30.0600,-84.2910,1.111,1111122 
COMPS,ioos:station:USF.COMPS:SHP:1,2016-02-01T10:42:00Z,30.0600,-84.2910,1.111,1111122 
COMPS,ioos:station:USF.COMPS:SHP:1,2016-02-01T10:48:00Z,30.0600,-84.2910,1.111,1111122 
COMPS,ioos:station:USF.COMPS:SHP:1,2016-02-01T10:54:00Z,30.0600,-84.2910,1.111,1111122 
COMPS,ioos:station:USF.COMPS:SHP:1,2016-02-01T11:00:00Z,30.0600,-84.2910,1.111,1111122 
COMPS,ioos:station:USF.COMPS:SHP:1,2016-02-01T11:06:00Z,30.0600,-84.2910,1.111,1111122 
COMPS,ioos:station:USF.COMPS:SHP:1,2016-02-01T11:12:00Z,30.0600,-84.2910,1.111,1111122 
COMPS,ioos:station:USF.COMPS:SHP:1,2016-02-01T11:18:00Z,30.0600,-84.2910,1.111,1111122 
COMPS,ioos:station:USF.COMPS:SHP:1,2016-02-01T11:24:00Z,30.0600,-84.2910,1.111,1111122 
COMPS,ioos:station:USF.COMPS:SHP:1,2016-02-01T11:30:00Z,30.0600,-84.2910,1.111,1111122 
COMPS,ioos:station:USF.COMPS:SHP:1,2016-02-01T11:36:00Z,30.0600,-84.2910,1.112,1111122 
COMPS,ioos:station:USF.COMPS:SHP:1,2016-02-01T11:42:00Z,30.0600,-84.2910,1.112,1111122 
COMPS,ioos:station:USF.COMPS:SHP:1,2016-02-01T11:48:00Z,30.0600,-84.2910,1.112,1111122 
COMPS,ioos:station:USF.COMPS:SHP:1,2016-02-01T11:54:00Z,30.0600,-84.2910,1.112,1111122 
COMPS,ioos:station:USF.COMPS:SHP:1,2016-02-01T12:00:00Z,30.0600,-84.2910,1.112,1111122 
COMPS,ioos:station:USF.COMPS:SHP:1,2016-02-01T12:06:00Z,30.0600,-84.2910,1.112,1111122 
COMPS,ioos:station:USF.COMPS:SHP:1,2016-02-01T12:12:00Z,30.0600,-84.2910,1.112,1111122 
COMPS,ioos:station:USF.COMPS:SHP:1,2016-02-01T12:18:00Z,30.0600,-84.2910,1.112,1111122 
COMPS,ioos:station:USF.COMPS:SHP:1,2016-02-01T12:24:00Z,30.0600,-84.2910,1.112,1111122 
COMPS,ioos:station:USF.COMPS:SHP:1,2016-02-01T12:30:00Z,30.0600,-84.2910,1.112,1111122 
COMPS,ioos:station:USF.COMPS:SHP:1,2016-02-01T12:36:00Z,30.0600,-84.2910,1.112,1111122 
COMPS,ioos:station:USF.COMPS:SHP:1,2016-02-01T12:42:00Z,30.0600,-84.2910,1.112,1111122 
COMPS,ioos:station:USF.COMPS:SHP:1,2016-02-01T12:48:00Z,30.0600,-84.2910,1.112,1111122 
COMPS,ioos:station:USF.COMPS:SHP:1,2016-02-01T12:54:00Z,30.0600,-84.2910,1.112,1111122 
COMPS,ioos:station:USF.COMPS:SHP:1,2016-02-01T13:00:00Z,30.0600,-84.2910,1.112,1111122 
COMPS,ioos:station:USF.COMPS:SHP:1,2016-02-01T13:06:00Z,30.0600,-84.2910,1.112,1111122 
COMPS,ioos:station:USF.COMPS:SHP:1,2016-02-01T13:12:00Z,30.0600,-84.2910,1.112,1111122 
COMPS,ioos:station:USF.COMPS:SHP:1,2016-02-01T13:18:00Z,30.0600,-84.2910,1.112,1111122 
COMPS,ioos:station:USF.COMPS:SHP:1,2016-02-01T13:24:00Z,30.0600,-84.2910,1.112,1111122 
COMPS,ioos:station:USF.COMPS:SHP:1,2016-02-01T13:30:00Z,30.0600,-84.2910,1.112,1111122 
COMPS,ioos:station:USF.COMPS:SHP:1,2016-02-01T13:36:00Z,30.0600,-84.2910,1.112,1111122 
COMPS,ioos:station:USF.COMPS:SHP:1,2016-02-01T13:42:00Z,30.0600,-84.2910,1.112,1111122 
COMPS,ioos:station:USF.COMPS:SHP:1,2016-02-01T13:48:00Z,30.0600,-84.2910,1.112,1111122 
COMPS,ioos:station:USF.COMPS:SHP:1,2016-02-01T13:54:00Z,30.0600,-84.2910,1.111,1111122 
COMPS,ioos:station:USF.COMPS:SHP:1,2016-02-01T14:00:00Z,30.0600,-84.2910,1.111,1111122 
COMPS,ioos:station:USF.COMPS:SHP:1,2016-02-01T14:06:00Z,30.0600,-84.2910,1.11,1111122 
COMPS,ioos:station:USF.COMPS:SHP:1,2016-02-01T14:12:00Z,30.0600,-84.2910,1.109,1111122 
COMPS,ioos:station:USF.COMPS:SHP:1,2016-02-01T14:18:00Z,30.0600,-84.2910,1.109,1111122 
COMPS,ioos:station:USF.COMPS:SHP:1,2016-02-01T14:24:00Z,30.0600,-84.2910,0.925,1111122 
COMPS,ioos:station:USF.COMPS:SHP:1,2016-02-01T14:30:00Z,30.0600,-84.2910,0.463,1111122 
COMPS,ioos:station:USF.COMPS:SHP:1,2016-02-01T14:36:00Z,30.0600,-84.2910,0.291,1111122 
COMPS,ioos:station:USF.COMPS:SHP:1,2016-02-01T14:42:00Z,30.0600,-84.2910,0.288,1111122 
COMPS,ioos:station:USF.COMPS:SHP:1,2016-02-01T14:48:00Z,30.0600,-84.2910,0.286,1111122 
COMPS,ioos:station:USF.COMPS:SHP:1,2016-02-01T14:54:00Z,30.0600,-84.2910,0.28,1111122 
COMPS,ioos:station:USF.COMPS:SHP:1,2016-02-01T15:00:00Z,30.0600,-84.2910,0.274,1111122 
COMPS,ioos:station:USF.COMPS:SHP:1,2016-02-01T15:06:00Z,30.0600,-84.2910,0.268,1111122 
COMPS,ioos:station:USF.COMPS:SHP:1,2016-02-01T15:12:00Z,30.0600,-84.2910,0.263,1111122 
COMPS,ioos:station:USF.COMPS:SHP:1,2016-02-01T15:18:00Z,30.0600,-84.2910,0.259,1111122 
COMPS,ioos:station:USF.COMPS:SHP:1,2016-02-01T15:24:00Z,30.0600,-84.2910,0.255,1111122 
COMPS,ioos:station:USF.COMPS:SHP:1,2016-02-01T15:30:00Z,30.0600,-84.2910,0.246,1111122 
COMPS,ioos:station:USF.COMPS:SHP:1,2016-02-01T15:36:00Z,30.0600,-84.2910,0.235,1111122 
COMPS,ioos:station:USF.COMPS:SHP:1,2016-02-01T15:42:00Z,30.0600,-84.2910,0.231,1111122 
COMPS,ioos:station:USF.COMPS:SHP:1,2016-02-01T15:48:00Z,30.0600,-84.2910,0.23,1111122 
COMPS,ioos:station:USF.COMPS:SHP:1,2016-02-01T15:54:00Z,30.0600,-84.2910,0.226,1111122 
COMPS,ioos:station:USF.COMPS:SHP:1,2016-02-01T16:00:00Z,30.0600,-84.2910,0.218,1111122 
COMPS,ioos:station:USF.COMPS:SHP:1,2016-02-01T16:06:00Z,30.0600,-84.2910,0.204,1111122 
COMPS,ioos:station:USF.COMPS:SHP:1,2016-02-01T16:12:00Z,30.0600,-84.2910,0.191,1111122 
COMPS,ioos:station:USF.COMPS:SHP:1,2016-02-01T16:18:00Z,30.0600,-84.2910,0.181,1111122 
COMPS,ioos:station:USF.COMPS:SHP:1,2016-02-01T16:24:00Z,30.0600,-84.2910,0.169,1111122 
COMPS,ioos:station:USF.COMPS:SHP:1,2016-02-01T16:30:00Z,30.0600,-84.2910,0.162,1111122 
COMPS,ioos:station:USF.COMPS:SHP:1,2016-02-01T16:36:00Z,30.0600,-84.2910,0.154,1111122 
COMPS,ioos:station:USF.COMPS:SHP:1,2016-02-01T16:42:00Z,30.0600,-84.2910,0.152,1111122 
COMPS,ioos:station:USF.COMPS:SHP:1,2016-02-01T16:48:00Z,30.0600,-84.2910,0.152,1111122 
COMPS,ioos:station:USF.COMPS:SHP:1,2016-02-01T16:54:00Z,30.0600,-84.2910,0.152,1111122 
COMPS,ioos:station:USF.COMPS:SHP:1,2016-02-01T17:00:00Z,30.0600,-84.2910,0.14,1111122 
COMPS,ioos:station:USF.COMPS:SHP:1,2016-02-01T17:06:00Z,30.0600,-84.2910,0.132,1111122 
COMPS,ioos:station:USF.COMPS:SHP:1,2016-02-01T17:12:00Z,30.0600,-84.2910,0.126,1111122 
COMPS,ioos:station:USF.COMPS:SHP:1,2016-02-01T17:18:00Z,30.0600,-84.2910,0.115,1111122 
COMPS,ioos:station:USF.COMPS:SHP:1,2016-02-01T17:24:00Z,30.0600,-84.2910,0.113,1111122 
COMPS,ioos:station:USF.COMPS:SHP:1,2016-02-01T17:30:00Z,30.0600,-84.2910,0.115,1111122 
COMPS,ioos:station:USF.COMPS:SHP:1,2016-02-01T17:36:00Z,30.0600,-84.2910,0.11,1111122 
COMPS,ioos:station:USF.COMPS:SHP:1,2016-02-01T17:42:00Z,30.0600,-84.2910,0.101,1111122 
COMPS,ioos:station:USF.COMPS:SHP:1,2016-02-01T17:48:00Z,30.0600,-84.2910,0.095,1111122 
COMPS,ioos:station:USF.COMPS:SHP:1,2016-02-01T17:54:00Z,30.0600,-84.2910,0.089,1111122 
COMPS,ioos:station:USF.COMPS:SHP:1,2016-02-01T18:00:00Z,30.0600,-84.2910,0.08,1111122 
COMPS,ioos:station:USF.COMPS:SHP:1,2016-02-01T18:06:00Z,30.0600,-84.2910,0.076,1111122 
COMPS,ioos:station:USF.COMPS:SHP:1,2016-02-01T18:12:00Z,30.0600,-84.2910,0.08,1111122 
COMPS,ioos:station:USF.COMPS:SHP:1,2016-02-01T18:18:00Z,30.0600,-84.2910,0.085,1111122 
COMPS,ioos:station:USF.COMPS:SHP:1,2016-02-01T18:24:00Z,30.0600,-84.2910,0.087,1111122 
COMPS,ioos:station:USF.COMPS:SHP:1,2016-02-01T18:30:00Z,30.0600,-84.2910,0.089,1111122 
COMPS,ioos:station:USF.COMPS:SHP:1,2016-02-01T18:36:00Z,30.0600,-84.2910,0.087,1111122 
COMPS,ioos:station:USF.COMPS:SHP:1,2016-02-01T18:42:00Z,30.0600,-84.2910,0.081,1111122 
COMPS,ioos:station:USF.COMPS:SHP:1,2016-02-01T18:48:00Z,30.0600,-84.2910,0.077,1111122 
COMPS,ioos:station:USF.COMPS:SHP:1,2016-02-01T18:54:00Z,30.0600,-84.2910,0.078,1111122 
COMPS,ioos:station:USF.COMPS:SHP:1,2016-02-01T19:00:00Z,30.0600,-84.2910,0.081,1111122 
COMPS,ioos:station:USF.COMPS:SHP:1,2016-02-01T19:06:00Z,30.0600,-84.2910,0.083,1111122 
COMPS,ioos:station:USF.COMPS:SHP:1,2016-02-01T19:12:00Z,30.0600,-84.2910,0.088,1111122 
COMPS,ioos:station:USF.COMPS:SHP:1,2016-02-01T19:18:00Z,30.0600,-84.2910,0.096,1111122 
COMPS,ioos:station:USF.COMPS:SHP:1,2016-02-01T19:24:00Z,30.0600,-84.2910,0.099,1111122 
COMPS,ioos:station:USF.COMPS:SHP:1,2016-02-01T19:30:00Z,30.0600,-84.2910,0.098,1111122 
COMPS,ioos:station:USF.COMPS:SHP:1,2016-02-01T19:36:00Z,30.0600,-84.2910,0.099,1111122 
COMPS,ioos:station:USF.COMPS:SHP:1,2016-02-01T19:42:00Z,30.0600,-84.2910,0.105,1111122 
COMPS,ioos:station:USF.COMPS:SHP:1,2016-02-01T19:48:00Z,30.0600,-84.2910,0.114,1111122 
COMPS,ioos:station:USF.COMPS:SHP:1,2016-02-01T19:54:00Z,30.0600,-84.2910,0.124,1111122 
COMPS,ioos:station:USF.COMPS:SHP:1,2016-02-01T20:00:00Z,30.0600,-84.2910,0.133,1111122 
COMPS,ioos:station:USF.COMPS:SHP:1,2016-02-01T20:06:00Z,30.0600,-84.2910,0.142,1111122 
COMPS,ioos:station:USF.COMPS:SHP:1,2016-02-01T20:12:00Z,30.0600,-84.2910,0.149,1111122 
COMPS,ioos:station:USF.COMPS:SHP:1,2016-02-01T20:18:00Z,30.0600,-84.2910,0.157,1111122 
COMPS,ioos:station:USF.COMPS:SHP:1,2016-02-01T20:24:00Z,30.0600,-84.2910,0.165,1111122 
COMPS,ioos:station:USF.COMPS:SHP:1,2016-02-01T20:30:00Z,30.0600,-84.2910,0.175,1111122 
COMPS,ioos:station:USF.COMPS:SHP:1,2016-02-01T20:36:00Z,30.0600,-84.2910,0.182,1111122 
COMPS,ioos:station:USF.COMPS:SHP:1,2016-02-01T20:42:00Z,30.0600,-84.2910,0.19,1111122 
COMPS,ioos:station:USF.COMPS:SHP:1,2016-02-01T20:48:00Z,30.0600,-84.2910,0.2,1111122 
COMPS,ioos:station:USF.COMPS:SHP:1,2016-02-01T20:54:00Z,30.0600,-84.2910,0.21,1111122 
COMPS,ioos:station:USF.COMPS:SHP:1,2016-02-01T21:00:00Z,30.0600,-84.2910,0.22,1111122 
COMPS,ioos:station:USF.COMPS:SHP:1,2016-02-01T21:06:00Z,30.0600,-84.2910,0.23,1111122 
COMPS,ioos:station:USF.COMPS:SHP:1,2016-02-01T21:12:00Z,30.0600,-84.2910,0.242,1111122 
COMPS,ioos:station:USF.COMPS:SHP:1,2016-02-01T21:18:00Z,30.0600,-84.2910,0.253,1111122 
COMPS,ioos:station:USF.COMPS:SHP:1,2016-02-01T21:24:00Z,30.0600,-84.2910,0.265,1111122 
COMPS,ioos:station:USF.COMPS:SHP:1,2016-02-01T21:30:00Z,30.0600,-84.2910,0.274,1111122 
COMPS,ioos:station:USF.COMPS:SHP:1,2016-02-01T21:36:00Z,30.0600,-84.2910,0.284,1111122 
COMPS,ioos:station:USF.COMPS:SHP:1,2016-02-01T21:42:00Z,30.0600,-84.2910,0.295,1111122 
COMPS,ioos:station:USF.COMPS:SHP:1,2016-02-01T21:48:00Z,30.0600,-84.2910,0.305,1111122 
COMPS,ioos:station:USF.COMPS:SHP:1,2016-02-01T21:54:00Z,30.0600,-84.2910,0.314,1111122 
COMPS,ioos:station:USF.COMPS:SHP:1,2016-02-01T22:00:00Z,30.0600,-84.2910,0.325,1111122 
COMPS,ioos:station:USF.COMPS:SHP:1,2016-02-01T22:06:00Z,30.0600,-84.2910,0.338,1111122 
COMPS,ioos:station:USF.COMPS:SHP:1,2016-02-01T22:12:00Z,30.0600,-84.2910,0.347,1111122 
COMPS,ioos:station:USF.COMPS:SHP:1,2016-02-01T22:18:00Z,30.0600,-84.2910,0.355,1111122 
COMPS,ioos:station:USF.COMPS:SHP:1,2016-02-01T22:24:00Z,30.0600,-84.2910,0.363,1111122 
COMPS,ioos:station:USF.COMPS:SHP:1,2016-02-01T22:30:00Z,30.0600,-84.2910,0.374,1111122 
COMPS,ioos:station:USF.COMPS:SHP:1,2016-02-01T22:36:00Z,30.0600,-84.2910,0.385,1111122 
COMPS,ioos:station:USF.COMPS:SHP:1,2016-02-01T22:42:00Z,30.0600,-84.2910,0.393,1111122 
COMPS,ioos:station:USF.COMPS:SHP:1,2016-02-01T22:48:00Z,30.0600,-84.2910,0.403,1111122 
COMPS,ioos:station:USF.COMPS:SHP:1,2016-02-01T22:54:00Z,30.0600,-84.2910,0.407,1111122 
COMPS,ioos:station:USF.COMPS:SHP:1,2016-02-01T23:00:00Z,30.0600,-84.2910,0.41,1111122 
COMPS,ioos:station:USF.COMPS:SHP:1,2016-02-01T23:06:00Z,30.0600,-84.2910,0.413,1111122 
COMPS,ioos:station:USF.COMPS:SHP:1,2016-02-01T23:12:00Z,30.0600,-84.2910,0.42,1111122 
COMPS,ioos:station:USF.COMPS:SHP:1,2016-02-01T23:18:00Z,30.0600,-84.2910,0.426,1111122 
COMPS,ioos:station:USF.COMPS:SHP:1,2016-02-01T23:24:00Z,30.0600,-84.2910,0.429,1111122 
COMPS,ioos:station:USF.COMPS:SHP:1,2016-02-01T23:30:00Z,30.0600,-84.2910,0.434,1111122 
COMPS,ioos:station:USF.COMPS:SHP:1,2016-02-01T23:36:00Z,30.0600,-84.2910,0.441,1111122 
COMPS,ioos:station:USF.COMPS:SHP:1,2016-02-01T23:42:00Z,30.0600,-84.2910,0.445,1111122 
COMPS,ioos:station:USF.COMPS:SHP:1,2016-02-01T23:48:00Z,30.0600,-84.2910,0.447,1111122 
COMPS,ioos:station:USF.COMPS:SHP:1,2016-02-01T23:54:00Z,30.0600,-84.2910,0.45,1111122 
COMPS,ioos:station:USF.COMPS:SHP:1,2016-02-02T00:00:00Z,30.0600,-84.2910,0.452,1111122 
COMPS,ioos:station:USF.COMPS:SHP:1,2016-02-02T00:06:00Z,30.0600,-84.2910,0.456,1111122 
COMPS,ioos:station:USF.COMPS:SHP:1,2016-02-02T00:12:00Z,30.0600,-84.2910,0.459,1111122 
COMPS,ioos:station:USF.COMPS:SHP:1,2016-02-02T00:18:00Z,30.0600,-84.2910,0.457,1111122 
COMPS,ioos:station:USF.COMPS:SHP:1,2016-02-02T00:24:00Z,30.0600,-84.2910,0.46,1111122 
COMPS,ioos:station:USF.COMPS:SHP:1,2016-02-02T00:30:00Z,30.0600,-84.2910,0.463,1111122 
COMPS,ioos:station:USF.COMPS:SHP:1,2016-02-02T00:36:00Z,30.0600,-84.2910,0.464,1111122 
COMPS,ioos:station:USF.COMPS:SHP:1,2016-02-02T00:42:00Z,30.0600,-84.2910,0.465,1111122 
COMPS,ioos:station:USF.COMPS:SHP:1,2016-02-02T00:48:00Z,30.0600,-84.2910,0.465,1111122 
COMPS,ioos:station:USF.COMPS:SHP:1,2016-02-02T00:54:00Z,30.0600,-84.2910,0.466,1111122 
COMPS,ioos:station:USF.COMPS:SHP:1,2016-02-02T01:00:00Z,30.0600,-84.2910,0.469,1111122 
COMPS,ioos:station:USF.COMPS:SHP:1,2016-02-02T01:06:00Z,30.0600,-84.2910,0.467,1111122 
COMPS,ioos:station:USF.COMPS:SHP:1,2016-02-02T01:12:00Z,30.0600,-84.2910,0.464,1111122 
COMPS,ioos:station:USF.COMPS:SHP:1,2016-02-02T01:18:00Z,30.0600,-84.2910,0.466,1111122 
COMPS,ioos:station:USF.COMPS:SHP:1,2016-02-02T01:24:00Z,30.0600,-84.2910,0.466,1111122 
COMPS,ioos:station:USF.COMPS:SHP:1,2016-02-02T01:30:00Z,30.0600,-84.2910,0.456,1111122 
COMPS,ioos:station:USF.COMPS:SHP:1,2016-02-02T01:36:00Z,30.0600,-84.2910,0.453,1111122 
COMPS,ioos:station:USF.COMPS:SHP:1,2016-02-02T01:42:00Z,30.0600,-84.2910,0.455,1111122 
COMPS,ioos:station:USF.COMPS:SHP:1,2016-02-02T01:48:00Z,30.0600,-84.2910,0.454,1111122 
COMPS,ioos:station:USF.COMPS:SHP:1,2016-02-02T01:54:00Z,30.0600,-84.2910,0.454,1111122 
COMPS,ioos:station:USF.COMPS:SHP:1,2016-02-02T02:00:00Z,30.0600,-84.2910,0.45,1111122 
COMPS,ioos:station:USF.COMPS:SHP:1,2016-02-02T02:06:00Z,30.0600,-84.2910,0.442,1111122 
COMPS,ioos:station:USF.COMPS:SHP:1,2016-02-02T02:12:00Z,30.0600,-84.2910,0.43,1111122 
COMPS,ioos:station:USF.COMPS:SHP:1,2016-02-02T02:18:00Z,30.0600,-84.2910,0.421,1111122 
COMPS,ioos:station:USF.COMPS:SHP:1,2016-02-02T02:24:00Z,30.0600,-84.2910,0.413,1111122 
COMPS,ioos:station:USF.COMPS:SHP:1,2016-02-02T02:30:00Z,30.0600,-84.2910,0.401,1111122 
COMPS,ioos:station:USF.COMPS:SHP:1,2016-02-02T02:36:00Z,30.0600,-84.2910,0.397,1111122 
COMPS,ioos:station:USF.COMPS:SHP:1,2016-02-02T02:42:00Z,30.0600,-84.2910,0.388,1111122 
COMPS,ioos:station:USF.COMPS:SHP:1,2016-02-02T02:48:00Z,30.0600,-84.2910,0.369,1111122 
COMPS,ioos:station:USF.COMPS:SHP:1,2016-02-02T02:54:00Z,30.0600,-84.2910,0.355,1111122 
COMPS,ioos:station:USF.COMPS:SHP:1,2016-02-02T03:00:00Z,30.0600,-84.2910,0.347,1111122 
COMPS,ioos:station:USF.COMPS:SHP:1,2016-02-02T03:06:00Z,30.0600,-84.2910,0.34,1111122 